CW5917 Weather Reports


Display with metric or nautical units.
time (UTC)temp
F
wind
direction
speed
MPH
gust
MPH
rain 1hr
in
rain 24hr
in
rain mn
in
humidity
%
barometer
mb
20260904164524 72 81 2.0 10.0 0.00 0.02 0.02 91 1015.6
20260904164021 72 112 4.0 15.0 0.01 0.02 0.02 91 1015.5
20260904163533 72 134 5.0 15.0 0.01 0.02 0.02 90 1015.2
20260904163024 72 153 8.0 15.0 0.01 0.02 0.02 91 1015.0
20260904162537 72 98 7.0 14.0 0.01 0.02 0.02 90 1015.0
20260904162020 72 121 8.0 18.0 0.01 0.02 0.02 90 1015.0
20260904161536 72 103 9.0 18.0 0.01 0.02 0.02 89 1015.1
20260904161051 72 118 6.0 13.0 0.01 0.02 0.02 89 1015.2
20260904160545 72 140 6.0 13.0 0.01 0.02 0.02 89 1015.3
20260904160048 72 113 5.0 13.0 0.01 0.02 0.02 88 1015.5
20260904155519 72 142 6.0 14.0 0.01 0.02 0.02 88 1015.6
20260904155035 73 158 8.0 14.0 0.01 0.02 0.02 87 1015.6
20260904154535 73 128 8.0 17.0 0.01 0.02 0.02 87 1015.8
20260904154026 73 119 9.0 17.0 0.00 0.01 0.01 86 1016.3
20260904153519 73 113 7.0 14.0 0.00 0.01 0.01 87 1017.0
20260904153037 74 128 8.0 14.0 0.00 0.01 0.01 87 1016.6
20260904152532 73 92 5.0 17.0 0.00 0.01 0.01 88 1016.4
20260904152038 73 130 9.0 20.0 0.00 0.01 0.01 88 1016.1
20260904151536 72 114 12.0 20.0 0.00 0.01 0.01 88 1016.2
20260904151030 72 126 11.0 18.0 0.00 0.01 0.01 88 1016.4
20260904150520 72 117 11.0 18.0 0.00 0.01 0.01 88 1016.7
20260904150030 72 109 11.0 17.0 0.00 0.06 0.01 89 1016.6
20260904145537 72 59 9.0 14.0 0.00 0.06 0.01 89 1016.9
20260904145032 72 59 7.0 14.0 0.00 0.06 0.01 90 1016.9
20260904144532 72 85 7.0 14.0 0.00 0.06 0.01 90 1017.0
20260904144025 71 88 6.0 13.0 0.00 0.06 0.01 91 1016.8
20260904143554 71 92 7.0 12.0 0.00 0.06 0.01 91 1016.8
20260904143052 71 70 5.0 13.0 0.00 0.06 0.01 91 1016.6
20260904142527 71 105 7.0 13.0 0.00 0.06 0.01 91 1016.3
20260904142020 71 99 6.0 14.0 0.00 0.06 0.01 91 1016.4
20260904141536 71 82 6.0 16.0 0.00 0.06 0.01 91 1016.2
20260904141025 72 78 7.0 17.0 0.00 0.06 0.01 91 1016.2
20260904140521 72 123 7.0 15.0 0.00 0.06 0.01 91 1015.9
20260904140031 72 69 9.0 15.0 0.00 0.06 0.01 91 1015.9
20260904135526 73 82 7.0 16.0 0.00 0.06 0.01 91 1015.8
20260904135020 73 80 10.0 16.0 0.00 0.06 0.01 91 1016.3
20260904134556 74 48 9.0 18.0 0.00 0.06 0.01 91 1016.3
20260904134030 75 55 10.0 18.0 0.00 0.06 0.01 91 1016.3
20260904133536 75 44 9.0 19.0 0.00 0.06 0.01 92 1016.3
20260904132517 75 49 4.0 15.0 0.00 0.06 0.01 92 1015.6
20260904132036 75 72 4.0 16.0 0.00 0.06 0.01 92 1015.2
20260904131554 75 30 5.0 11.0 0.00 0.06 0.01 92 1015.1
20260904131031 75 291 3.0 17.0 0.00 0.06 0.01 92 1015.0
20260904130527 76 5 11.0 17.0 0.00 0.06 0.01 92 1015.0
20260904130027 76 30 6.0 13.0 0.00 0.06 0.01 92 1014.7
20260904125523 76 198 0.0 0.0 0.00 0.06 0.01 92 1013.8
20260904125033 76 198 0.0 0.0 0.00 0.06 0.01 92 1013.7
20260904124534 76 198 0.0 0.0 0.00 0.06 0.01 92 1013.7
20260904124029 76 198 0.0 0.0 0.00 0.06 0.01 92 1013.8
20260904123520 76 198 0.0 0.0 0.00 0.06 0.01 92 1013.5
20260904123028 76 198 0.0 2.0 0.00 0.06 0.01 92 1013.5
20260904122525 76 198 1.0 4.0 0.00 0.06 0.01 92 1013.3
20260904122035 76 198 2.0 6.0 0.00 0.06 0.01 92 1013.2
20260904121534 76 227 4.0 7.0 0.00 0.06 0.01 92 1013.1
20260904121029 76 211 5.0 7.0 0.00 0.06 0.01 92 1013.1
20260904120547 75 227 4.0 8.0 0.00 0.06 0.01 92 1013.0
20260904120026 75 221 5.0 10.0 0.00 0.06 0.01 92 1013.0
20260904115521 75 206 5.0 10.0 0.00 0.06 0.01 92 1012.9
20260904115032 75 208 6.0 8.0 0.00 0.06 0.01 92 1012.8
20260904114531 75 213 6.0 8.0 0.00 0.06 0.01 92 1012.8
20260904114027 75 218 5.0 8.0 0.00 0.06 0.01 92 1012.7
20260904113521 75 226 6.0 11.0 0.00 0.06 0.01 92 1012.6
20260904113037 76 231 5.0 10.0 0.00 0.06 0.01 92 1012.6
20260904112528 76 223 5.0 9.0 0.00 0.06 0.01 92 1012.6
20260904112023 76 213 6.0 9.0 0.00 0.06 0.01 92 1012.5
20260904111531 76 226 7.0 10.0 0.00 0.06 0.01 92 1012.5
20260904111027 76 223 6.0 10.0 0.00 0.06 0.01 92 1012.5
20260904110521 76 222 6.0 9.0 0.00 0.06 0.01 92 1012.5
20260904110036 76 227 5.0 9.0 0.00 0.06 0.01 92 1012.6
20260904105525 76 221 4.0 9.0 0.00 0.06 0.01 92 1012.5
20260904105018 76 223 5.0 9.0 0.00 0.06 0.01 92 1012.6
20260904104517 76 228 5.0 9.0 0.00 0.06 0.01 92 1012.6
20260904104030 76 233 6.0 9.0 0.00 0.06 0.01 92 1012.6
20260904103524 76 223 5.0 10.0 0.00 0.06 0.01 93 1012.6
20260904103038 76 234 7.0 10.0 0.00 0.06 0.01 93 1012.6
20260904102532 76 207 6.0 10.0 0.00 0.06 0.01 93 1012.6
20260904102036 76 212 8.0 10.0 0.00 0.06 0.01 93 1012.7
20260904101527 76 217 6.0 10.0 0.00 0.06 0.01 93 1012.6
20260904101042 76 211 7.0 10.0 0.00 0.06 0.01 93 1012.8
20260904100533 76 208 8.0 10.0 0.00 0.06 0.01 94 1012.8
20260904100053 76 204 7.0 10.0 0.00 0.06 0.01 94 1012.9
20260904095527 76 222 7.0 10.0 0.01 0.06 0.01 94 1013.4
20260904095043 76 219 6.0 10.0 0.01 0.06 0.01 94 1012.9
20260904094530 76 215 7.0 9.0 0.01 0.06 0.01 94 1012.9
20260904094041 76 209 4.0 7.0 0.01 0.06 0.01 94 1013.1
20260904093555 76 210 5.0 7.0 0.01 0.06 0.01 94 1013.2
20260904093045 76 210 5.0 6.0 0.01 0.06 0.01 94 1013.2
20260904092519 76 214 3.0 5.0 0.01 0.06 0.01 94 1013.2
20260904092030 75 209 2.0 4.0 0.01 0.06 0.01 94 1013.2
20260904091521 75 220 0.0 2.0 0.01 0.06 0.01 93 1013.2
20260904091036 75 220 1.0 2.0 0.01 0.06 0.01 93 1013.1
20260904090534 75 220 1.0 3.0 0.01 0.06 0.01 93 1013.1
20260904090020 75 220 2.0 3.0 0.00 0.05 0.00 93 1013.1
20260904085517 75 209 1.0 3.0 0.00 0.05 0.00 93 1013.1
20260904085020 75 107 2.0 3.0 0.00 0.05 0.00 93 1013.1
20260904084533 76 107 2.0 3.0 0.00 0.05 0.00 93 1013.3
20260904084029 76 107 0.0 3.0 0.00 0.05 0.00 93 1013.2
20260904083543 76 107 1.0 4.0 0.00 0.05 0.00 93 1013.1
20260904083022 76 107 2.0 6.0 0.00 0.05 0.00 93 1013.2
20260904082522 76 94 2.0 6.0 0.00 0.05 0.00 93 1013.3
20260904082053 76 89 2.0 4.0 0.00 0.05 0.00 93 1013.2
20260904081532 76 110 2.0 4.0 0.00 0.05 0.00 93 1013.1
20260904081025 76 94 2.0 4.0 0.00 0.05 0.00 93 1013.1
20260904080519 76 95 1.0 3.0 0.00 0.05 0.00 93 1013.0
20260904080021 76 94 2.0 3.0 0.00 0.05 0.00 93 1013.1
20260904075554 76 95 0.0 1.0 0.00 0.05 0.00 93 1013.0
20260904075019 76 95 0.0 1.0 0.00 0.05 0.00 93 1013.0
20260904074549 76 94 0.0 2.0 0.00 0.05 0.00 93 1012.8
20260904074024 76 95 1.0 3.0 0.00 0.05 0.00 92 1012.8
20260904073536 76 94 0.0 4.0 0.00 0.05 0.00 92 1012.7
20260904073032 76 182 2.0 4.0 0.00 0.05 0.00 92 1012.8
20260904072556 76 111 1.0 3.0 0.00 0.05 0.00 93 1012.8
20260904072022 76 111 1.0 3.0 0.00 0.05 0.00 93 1012.8
20260904071525 76 111 0.0 4.0 0.00 0.05 0.00 93 1012.8
20260904071034 76 111 1.0 7.0 0.00 0.05 0.00 93 1012.7
20260904070525 76 151 1.0 6.0 0.00 0.05 0.00 93 1012.4
20260904070049 76 111 2.0 6.0 0.00 0.05 0.00 93 1012.5
20260904065524 76 111 3.0 6.0 0.00 0.05 0.00 93 1012.5
20260904065017 76 111 2.0 3.0 0.00 0.05 0.00 93 1012.7
20260904064553 76 111 1.0 4.0 0.00 0.05 0.00 93 1012.7
20260904064038 76 111 2.0 5.0 0.00 0.05 0.00 93 1012.7
20260904063533 76 179 1.0 5.0 0.00 0.05 0.00 92 1012.6
20260904063021 76 131 2.0 4.0 0.00 0.05 0.00 92 1012.6
20260904062537 76 209 1.0 5.0 0.00 0.05 0.00 92 1012.6
20260904062021 76 209 1.0 5.0 0.00 0.05 0.00 92 1012.7
20260904061538 76 209 2.0 4.0 0.00 0.05 0.00 92 1012.8
20260904061046 76 209 2.0 4.0 0.00 0.05 0.00 92 1012.9
20260904060519 76 209 1.0 3.0 0.00 0.05 0.00 92 1013.1
20260904060019 76 209 1.0 3.0 0.00 0.05 0.00 92 1013.2
20260904055534 76 209 0.0 2.0 0.00 0.05 0.00 92 1013.4
20260904055020 76 209 0.0 3.0 0.00 0.05 0.00 92 1013.4
20260904054533 76 209 0.0 3.0 0.00 0.05 0.00 92 1013.5
20260904054028 76 209 1.0 3.0 0.00 0.05 0.00 92 1013.4
20260904053521 76 209 0.0 3.0 0.00 0.05 0.00 92 1013.6
20260904053018 76 209 0.0 4.0 0.00 0.05 0.00 92 1013.6
20260904052517 76 209 2.0 4.0 0.00 0.05 0.00 92 1013.5
20260904052032 77 209 1.0 3.0 0.00 0.05 0.00 92 1013.5
20260904051519 77 209 1.0 3.0 0.00 0.05 0.00 92 1013.7
20260904051034 77 209 2.0 3.0 0.00 0.05 0.00 92 1013.8
20260904050530 77 209 1.0 5.0 0.00 0.05 0.00 92 1013.8
20260904050038 77 240 1.0 5.0 0.00 0.05 0.05 92 1013.8
20260904045528 77 173 2.0 4.0 0.00 0.05 0.05 92 1013.8
20260904045021 77 355 1.0 7.0 0.00 0.05 0.05 91 1013.7
20260904044527 77 193 2.0 7.0 0.00 0.05 0.05 91 1013.7
20260904044026 77 215 3.0 6.0 0.00 0.05 0.05 91 1013.9
20260904043520 77 155 3.0 5.0 0.00 0.05 0.05 91 1013.8
20260904043025 77 111 2.0 5.0 0.00 0.05 0.05 91 1014.0
20260904042541 77 138 0.0 5.0 0.00 0.05 0.05 91 1014.0
20260904042017 77 157 1.0 3.0 0.00 0.05 0.05 91 1014.1
20260904041525 77 88 1.0 4.0 0.00 0.05 0.05 91 1014.0
20260904041020 77 157 1.0 4.0 0.00 0.05 0.05 91 1014.0
20260904040533 77 142 2.0 6.0 0.00 0.05 0.05 91 1014.1
20260904040041 77 107 1.0 7.0 0.00 0.05 0.05 91 1014.0
20260904035535 77 109 2.0 7.0 0.00 0.05 0.05 91 1014.1
20260904035030 77 109 2.0 7.0 0.00 0.05 0.05 91 1014.0
20260904034529 77 120 1.0 9.0 0.00 0.05 0.05 91 1014.2
20260904034022 77 89 3.0 9.0 0.00 0.05 0.05 91 1014.3
20260904033535 77 115 1.0 6.0 0.00 0.05 0.05 91 1014.4
20260904033033 77 122 1.0 6.0 0.00 0.05 0.05 91 1014.5
20260904032528 77 138 3.0 7.0 0.00 0.05 0.05 91 1014.5
20260904032020 77 126 3.0 7.0 0.00 0.05 0.05 91 1014.6
20260904031520 77 117 3.0 7.0 0.00 0.05 0.05 91 1014.6
20260904031029 77 117 3.0 7.0 0.00 0.05 0.05 91 1014.7
20260904030525 77 129 3.0 7.0 0.00 0.05 0.05 91 1014.6
20260904030026 77 108 3.0 6.0 0.00 0.05 0.05 91 1014.6
20260904025521 77 111 2.0 6.0 0.00 0.05 0.05 91 1014.5
20260904025035 77 117 3.0 7.0 0.00 0.05 0.05 91 1014.6
20260904024525 77 80 3.0 7.0 0.00 0.05 0.05 90 1014.5
20260904024036 77 91 4.0 7.0 0.00 0.05 0.05 90 1014.3
20260904023538 77 107 3.0 7.0 0.00 0.05 0.05 90 1014.2
20260904023026 77 79 4.0 7.0 0.00 0.05 0.05 90 1014.2
20260904022522 77 109 3.0 7.0 0.00 0.05 0.05 90 1014.1
20260904022057 78 85 4.0 7.0 0.00 0.05 0.05 90 1014.1
20260904021529 78 123 3.0 8.0 0.00 0.05 0.05 90 1014.2
20260904021025 78 71 3.0 8.0 0.00 0.05 0.05 90 1014.3
20260904020541 78 115 2.0 6.0 0.00 0.05 0.05 90 1014.2
20260904020028 78 113 2.0 4.0 0.00 0.05 0.05 90 1014.1
20260904015544 78 113 2.0 5.0 0.00 0.05 0.05 90 1014.0
20260904015035 78 90 2.0 6.0 0.00 0.05 0.05 90 1014.0
20260904014517 78 104 3.0 7.0 0.00 0.05 0.05 90 1013.9
20260904014033 78 101 3.0 7.0 0.00 0.05 0.05 90 1013.8
20260904013517 78 105 3.0 7.0 0.00 0.05 0.05 90 1013.8
20260904013037 78 128 3.0 6.0 0.00 0.05 0.05 90 1013.7
20260904012521 78 110 3.0 6.0 0.00 0.05 0.05 90 1013.5
20260904012034 78 99 3.0 4.0 0.00 0.05 0.05 90 1013.5
20260904011520 78 124 3.0 6.0 0.00 0.05 0.05 90 1013.7
20260904011056 79 93 1.0 6.0 0.00 0.05 0.05 89 1013.7
20260904010528 79 93 3.0 6.0 0.00 0.05 0.05 89 1013.8
20260904010021 79 93 2.0 4.0 0.00 0.05 0.05 89 1013.8
20260904005531 79 103 1.0 4.0 0.00 0.05 0.05 89 1013.7
20260904005018 79 103 1.0 4.0 0.00 0.05 0.05 89 1013.7
20260904004536 79 103 2.0 4.0 0.00 0.05 0.05 89 1013.6
20260904004028 80 103 2.0 4.0 0.00 0.05 0.05 88 1013.6
20260904003525 80 57 0.0 3.0 0.00 0.05 0.05 88 1013.5
20260904003047 80 57 0.0 2.0 0.00 0.05 0.05 87 1013.5
20260904002520 80 57 1.0 4.0 0.00 0.05 0.05 87 1013.5
20260904002033 80 57 2.0 5.0 0.00 0.05 0.05 87 1013.5
20260904001521 81 57 3.0 5.0 0.00 0.05 0.05 86 1013.4
20260904001035 81 110 2.0 4.0 0.00 0.05 0.05 84 1013.7
20260904000520 82 110 2.0 4.0 0.00 0.05 0.05 83 1013.5
20260904000028 82 110 2.0 4.0 0.00 0.05 0.05 83 1013.4
20260903235525 82 110 1.0 3.0 0.00 0.05 0.05 83 1013.4
20260903235039 82 110 0.0 3.0 0.00 0.05 0.05 82 1013.3
20260903234535 82 110 2.0 6.0 0.00 0.05 0.05 82 1013.3
20260903234050 82 110 2.0 4.0 0.00 0.05 0.05 82 1013.4
20260903233542 82 110 2.0 4.0 0.00 0.05 0.05 82 1013.2
20260903233030 82 159 0.0 3.0 0.00 0.05 0.05 83 1013.3
20260903232525 82 159 1.0 5.0 0.00 0.05 0.05 84 1013.1
20260903232057 82 174 2.0 5.0 0.00 0.05 0.05 84 1013.2
20260903231530 82 115 0.0 4.0 0.00 0.05 0.05 85 1013.0
20260903231026 81 136 1.0 4.0 0.00 0.05 0.05 85 1013.1
20260903230521 81 138 1.0 6.0 0.00 0.05 0.05 85 1012.9
20260903230021 81 183 2.0 6.0 0.00 0.05 0.05 85 1013.0
20260903225552 81 142 1.0 6.0 0.00 0.05 0.05 85 1012.9
20260903225021 82 180 3.0 7.0 0.00 0.05 0.05 84 1013.0
20260903224529 82 155 4.0 7.0 0.00 0.05 0.05 84 1012.8
20260903224024 82 193 4.0 6.0 0.00 0.05 0.05 84 1012.8
20260903223539 82 142 3.0 6.0 0.00 0.05 0.05 83 1012.8
20260903223036 82 95 3.0 8.0 0.00 0.05 0.05 83 1013.0
20260903222547 82 186 3.0 6.0 0.00 0.05 0.05 82 1013.1
20260903222041 83 167 2.0 8.0 0.00 0.05 0.05 82 1012.7
20260903221528 83 122 3.0 6.0 0.00 0.05 0.05 81 1012.8
20260903221023 83 199 2.0 6.0 0.00 0.05 0.05 83 1013.0
20260903220517 83 192 2.0 7.0 0.00 0.05 0.05 82 1012.9
20260903220031 83 169 2.0 9.0 0.00 0.05 0.05 82 1013.1
20260903215517 83 186 4.0 8.0 0.00 0.05 0.05 83 1013.3
20260903215059 82 169 5.0 10.0 0.00 0.05 0.05 82 1013.4
20260903214527 83 173 3.0 8.0 0.00 0.05 0.05 82 1013.4
20260903214021 83 205 5.0 8.0 0.00 0.05 0.05 82 1013.7
20260903213532 82 202 4.0 8.0 0.00 0.05 0.05 82 1013.7
20260903213052 82 209 5.0 8.0 0.00 0.05 0.05 81 1013.7
20260903212537 82 150 4.0 9.0 0.00 0.05 0.05 82 1013.6
20260903212035 82 202 6.0 10.0 0.00 0.05 0.05 83 1013.6
20260903211600 81 175 6.0 10.0 0.00 0.05 0.05 83 1013.4
20260903211029 81 186 6.0 10.0 0.00 0.05 0.05 83 1013.3
20260903210525 82 189 4.0 9.0 0.00 0.05 0.05 83 1013.4
20260903210048 82 180 4.0 10.0 0.00 0.05 0.05 82 1013.5
20260903205522 82 205 5.0 10.0 0.00 0.05 0.05 82 1013.5
20260903205035 82 179 7.0 14.0 0.00 0.05 0.05 82 1013.6
20260903204519 82 185 7.0 12.0 0.00 0.05 0.05 81 1013.5
20260903204038 82 166 8.0 13.0 0.00 0.05 0.05 81 1013.7
20260903203519 82 197 9.0 13.0 0.00 0.05 0.05 80 1013.8
20260903203031 82 205 9.0 13.0 0.00 0.05 0.05 80 1013.9
20260903202521 82 225 6.0 9.0 0.00 0.05 0.05 80 1013.8
20260903202036 82 209 5.0 8.0 0.00 0.05 0.05 80 1014.1
20260903201533 82 183 5.0 9.0 0.00 0.05 0.05 80 1014.2
20260903201028 82 184 6.0 9.0 0.00 0.05 0.05 79 1014.1
20260903200535 82 186 4.0 10.0 0.00 0.05 0.05 77 1014.1
20260903200036 83 169 6.0 10.0 0.00 0.05 0.05 75 1014.0
20260903195517 84 163 4.0 9.0 0.00 0.05 0.05 74 1014.0
20260903195037 84 128 2.0 11.0 0.00 0.05 0.05 76 1013.9
20260903194527 84 112 4.0 11.0 0.00 0.05 0.05 76 1014.0
20260903194019 84 150 3.0 6.0 0.00 0.05 0.05 78 1014.1
20260903193516 83 198 3.0 8.0 0.00 0.05 0.05 78 1014.1
20260903193037 82 130 2.0 7.0 0.00 0.05 0.05 79 1014.1
20260903192519 81 162 2.0 6.0 0.00 0.05 0.05 78 1014.1
20260903192034 81 163 4.0 9.0 0.00 0.05 0.05 78 1014.1
20260903191531 81 161 6.0 9.0 0.00 0.05 0.05 78 1014.2
20260903191037 82 207 2.0 9.0 0.00 0.05 0.05 77 1014.2
20260903190530 83 148 3.0 9.0 0.00 0.05 0.05 73 1014.3
20260903190048 83 95 4.0 9.0 0.00 0.05 0.05 78 1014.4
20260903185542 83 118 3.0 7.0 0.00 0.05 0.05 76 1014.4
20260903185035 82 199 2.0 7.0 0.00 0.05 0.05 78 1014.4
20260903184523 81 153 3.0 9.0 0.00 0.05 0.05 80 1014.5
20260903184019 81 168 3.0 6.0 0.00 0.05 0.05 79 1014.6
20260903183530 81 123 3.0 7.0 0.00 0.05 0.05 84 1014.6
20260903183021 79 162 3.0 7.0 0.00 0.05 0.05 85 1014.7
20260903182516 78 124 3.0 4.0 0.00 0.05 0.05 82 1014.8
20260903182035 78 119 2.0 4.0 0.00 0.05 0.05 82 1015.0
20260903181535 78 115 2.0 7.0 0.00 0.05 0.05 82 1015.1
20260903181028 78 97 3.0 7.0 0.00 0.05 0.05 82 1015.1
20260903180519 78 82 2.0 7.0 0.00 0.05 0.05 84 1015.3
20260903180028 77 63 2.0 6.0 0.00 0.05 0.05 84 1015.1
20260903175545 77 107 3.0 7.0 0.00 0.05 0.05 83 1015.3
20260903175020 77 110 4.0 7.0 0.00 0.05 0.05 83 1015.4
20260903174534 77 26 4.0 7.0 0.00 0.05 0.05 83 1015.4
20260903174017 77 122 3.0 6.0 0.00 0.05 0.05 84 1015.3
20260903173532 77 101 5.0 8.0 0.00 0.05 0.05 83 1015.3
20260903173023 77 118 3.0 9.0 0.00 0.05 0.05 83 1015.4
20260903172519 78 114 5.0 9.0 0.00 0.05 0.05 82 1015.3
20260903172037 78 117 3.0 9.0 0.00 0.05 0.05 84 1015.1
20260903171532 77 107 5.0 10.0 0.00 0.05 0.05 84 1015.0
20260903171046 77 106 3.0 10.0 0.00 0.05 0.05 85 1015.0
20260903170521 76 99 6.0 8.0 0.00 0.05 0.05 87 1015.0
20260903170024 75 110 3.0 6.0 0.00 0.05 0.05 87 1015.2
20260903165520 75 110 1.0 6.0 0.00 0.05 0.05 86 1015.4
20260903165032 75 110 3.0 6.0 0.00 0.05 0.05 87 1015.2